{"data":{"norad_id":57683,"intl_designator":"2023-124W","name":"STARLINK-30295","alt_names":[],"object_type":"PAYLOAD","status":"ACTIVE","operator":null,"country":"US","launch_date":"2023-08-22","launch_site_code":"AFWTR","launch_vehicle":null,"mission":null,"orbit_class":"UNKNOWN","rcs_meters":null,"size_class":null,"mass_kg":null,"dimensions":null,"purposes":["comms"],"wikipedia_slug":null,"has_3d_model":false,"image_url":null,"decayed_at":null,"tle_current":{"epoch":"2026-09-20T12:56:40.843968Z","epoch_age_seconds":128241,"freshness":"FRESH","line1":"1 57683U 23124W   26263.53936162  .00001704  00000+0  61551-4 0  9998","line2":"2 57683  53.1627  19.3495 0001437 107.0647 253.0513 15.34403553173436","mean_motion":15.34403553,"eccentricity":0.0001437,"inclination_deg":53.1627,"raan_deg":19.3495,"arg_perigee_deg":107.0647,"mean_anomaly_deg":253.0513,"bstar":6.1551e-5,"rev_number":17343,"period_min":93.847540771434,"perigee_km":461.70965273771,"apogee_km":463.67570718773,"semimajor_km":6840.8296799627,"source":"CELESTRAK","updated_at":"2026-09-21T09:00:33.673539Z"}}}